Regional Weather Roundup
Issued by NWS Bismarck, ND

Home | Current Version | Previous Version | Text Only | Print | Product List | Glossary On
Versions: 1 2 3 4 5 6 7 8 9 10 11 12 13 14 15 16 17 18 19 20 21 22 23 24 25 26 27 28 29 30 31 32 33 34 35 36 37 38 39 40 41 42 43 44 45 46 47 48 49 50
000
ASUS43 KBIS 010410
RWRBIS

NWR BROADCAST TEXT
NATIONAL WEATHER SERVICE BISMARCK ND
1100 PM CDT FRI OCT 31 2014

NOTE: "FAIR" INDICATES FEW OR NO CLOUDS BELOW 12,000 FEET WITH NO
SIGNIFICANT WEATHER AND/OR OBSTRUCTIONS TO VISIBILITY.


CITY           SKY/WX    TMP DP  RH WIND       PRES   REMARKS
WILLISTON      CLEAR     40  17  39 SE14G25   29.90F
MINOT          MOCLDY    33  13  43 SE14      30.04F
MINOT AFB      MOCLDY    33  15  48 S16       30.03F
BISMARCK       MOCLDY    34  14  43 SE18      30.12F
DICKINSON      CLEAR     34  14  43 SE23      29.92F
GARRISON         N/A     35  18  49 S17G39    30.04F
HETTINGER ARPT CLEAR     36  13  38 SE16      29.96F
JAMESTOWN      CLEAR     28  18  66 S14       30.23F WCI  17
BEACH            N/A     36  18  48 SE17G24   29.88S
CARRINGTON     FAIR      28  19  69 S24       30.20F WCI  14
CROSBY         FAIR      37  16  41 S18G28    29.89F
HARVEY         FAIR      32  16  51 S15G23    30.13F
HAZEN          FAIR      36  12  38 SE20G31   30.04F
LINTON         FAIR      32  18  55 SE16G24   30.15F
MANDAN         FAIR      32  14  47 SE18G26   30.10F
OAKES            N/A     27  23  86 SE14      30.30F WCI  15
RUGBY          FAIR      32  16  51 S14G24    30.14F
STANLEY        FAIR      32  16  51 S20G30    29.96F
TIOGA          FAIR      34  16  47 S14G25    29.97S
$$

CITY           SKY/WX    TMP DP  RH WIND       PRES   REMARKS
GRAND FORKS    CLOUDY    34  20  56 S14       30.33F
GRAND FORKS AF CLOUDY    33  20  58 S16G25    30.31F
DEVILS LAKE    MOCLDY    34  18  51 S20G26    30.19F
FARGO          MOCLDY    31  20  63 S16G23    30.37F WCI  20
CANDO          FAIR      34  19  55 S22G31    30.19S
CAVALIER       FAIR      34  19  55 S17G29    30.28F
GRAFTON        FAIR      32  19  59 S18       30.31F
GWINNER        CLEAR     28  21  74 SE9       30.34F WCI  20
LANGDON        FAIR      32  19  59 S22       30.21F WCI  19
ROLLA          FAIR      32  16  51 S17G28    30.15F
WALHALLA       FAIR      32  19  59 S14       30.25F
$$

CITY           SKY/WX    TMP DP  RH WIND       PRES   REMARKS
ABERDEEN       PTCLDY    29  17  61 S14       30.31F WCI  18
MOBRIDGE       PTCLDY    39  18  42 S29G40    30.11F
BUFFALO          N/A     40  23  50 SE13      29.83F
RAPID CITY     CLEAR     39  28  64 S15       29.97F
GLASGOW        CLEAR     41  31  67 E16       29.76F
SIDNEY         CLEAR     39  19  45 SE14      29.89F
WOLF POINT     CLEAR     36  30  79 NE7       29.82S
GLENDIVE       CLEAR     43  28  56 S9        29.84F
MILES CITY     CLEAR     46  32  58 S12       29.79S
BAKER          CLEAR     41  26  55 SE18G25   29.86F
$$

CITY           SKY/WX    TMP DP  RH WIND       PRES   REMARKS
BILLINGS       CLOUDY    49  32  52 NW5       29.77F
GREAT FALLS    CLEAR     47  33  58 S10       29.72S
REGINA         PTCLDY    36  23  60 SE21G28   29.84S
ESTEVAN        PTCLDY    34  18  51 SE12      29.91F
$$




USA.gov is the U.S. government's official web portal to all federal, state and local government web resources and services.